Weather History for Palm Springs, CA

Change the Weather History Date:

Wednesday, September 5, 2012

  Actual Average Record
Temperature  
Mean Temperature 94 °F 90 °F  
Max Temperature 104 °F 104 °F 116 °F (1955)
Min Temperature 83 °F 76 °F 51 °F (1936)
Degree Days  
Heating Degree Days 0 0  
Month to date heating degree days 0 0  
Since 1 July heating degree days 0 0  
Cooling Degree Days 29 25  
Month to date cooling degree days 137 125  
Year to date cooling degree days 3555 3209  
Growing Degree Days 43 (Base 50)    
Moisture  
Dew Point 50 °F    
Average Humidity 25    
Maximum Humidity 32    
Minimum Humidity 18    
Precipitation  
Precipitation T in 0.01 in 0.71 in (1939)
Month to date precipitation T 0.09  
Year to date precipitation 1.81 3.62  
Since 1 July precipitation 1.02 0.68  
Snow  
Snow 0.00 in - - ()
Month to date snowfall 0.0  
Year to date snowfall 0.0  
Since 1 July snowfall 0.0  
Snow Depth 0.00 in    
Sea Level Pressure  
Sea Level Pressure 29.84 in    
Wind  
Wind Speed 3 mph (NNW)    
Max Wind Speed 10 mph    
Max Gust Speed 15 mph    
Visibility 10 miles    
Events      
T = Trace of Precipitation, MM = Missing Value Source: NWS Daily Summary

Daily Weather History Graph

Daily Weather History Graph

Search for Another Location

Airport:

Trip Planner

Search our weather history database for the weather conditions in past years. The results will help you decide how hot, cold, wet, or windy it might be!

Date:

Astronomy

Sep. 05, 2012 Rise Set
Actual Time 6:22 AM PDT 7:05 PM PDT
Civil Twilight 5:57 AM PDT 7:30 PM PDT
Nautical Twilight 5:27 AM PDT 8:00 PM PDT
Astronomical Twilight 4:57 AM PDT 8:30 PM PDT
Moon 9:56 PM PDT (9/5) 11:13 AM PDT (9/5)
Length of Visible Light 13h 33m
Length of Day
12h 42m
Waning Gibbous, 75% of the Moon is Illuminated
Sep 5
Waning Gibbous
Sep 8
Last Quarter
Sep 15
New
Sep 22
First Quarter
Sep 29
Full

Hourly Weather History & Observations

Time (PDT) Temp. Heat Index Dew Point Humidity Pressure Visibility Wind Dir Wind Speed Gust Speed Precip Events Conditions
12:53 AM 89.1 °F - 52.0 °F 28% 29.89 in 10.0 mi NE 3.5 mph - N/A   Clear
1:53 AM 86.0 °F 84.0 °F 53.1 °F 32% 29.90 in 10.0 mi Calm Calm - N/A   Clear
2:53 AM 87.1 °F - 43.0 °F 21% 29.88 in 10.0 mi North 6.9 mph - N/A   Clear
3:53 AM 87.1 °F - 44.1 °F 22% 29.88 in 10.0 mi Calm Calm - N/A   Clear
4:53 AM 87.1 °F - 41.0 °F 20% 29.87 in 10.0 mi NW 3.5 mph - N/A   Clear
5:53 AM 84.9 °F - 44.1 °F 24% 29.86 in 10.0 mi Calm Calm - N/A   Clear
6:53 AM 86.0 °F - 46.9 °F 26% 29.87 in 10.0 mi NW 3.5 mph - N/A   Mostly Cloudy
7:53 AM 87.1 °F - 48.9 °F 27% 29.88 in 10.0 mi Calm Calm - N/A   Mostly Cloudy
8:53 AM 90.0 °F - 48.9 °F 24% 29.89 in 10.0 mi SSE 4.6 mph - N/A   Overcast
9:53 AM 91.0 °F - 46.0 °F 21% 29.91 in 10.0 mi ENE 4.6 mph - N/A   Overcast
10:53 AM 93.0 °F - 48.0 °F 21% 29.91 in 10.0 mi Variable 6.9 mph - 0.00 in   Mostly Cloudy
11:53 AM 95.0 °F - 52.0 °F 23% 29.89 in 10.0 mi ENE 3.5 mph - N/A   Mostly Cloudy
12:53 PM 96.1 °F 93.5 °F 53.1 °F 23% 29.87 in 10.0 mi Calm Calm - N/A   Mostly Cloudy
1:53 PM 98.1 °F 96.4 °F 55.0 °F 24% 29.84 in 10.0 mi Variable 3.5 mph - N/A   Mostly Cloudy
2:53 PM 99.0 °F 97.3 °F 55.0 °F 23% 29.80 in 10.0 mi SE 4.6 mph - N/A   Mostly Cloudy
3:53 PM 102.9 °F 101.4 °F 54.0 °F 20% 29.77 in 10.0 mi Calm Calm - N/A   Clear
4:53 PM 102.9 °F - 52.0 °F 18% 29.75 in 10.0 mi WNW 5.8 mph - N/A   Clear
5:53 PM 102.0 °F 100.1 °F 54.0 °F 20% 29.75 in 10.0 mi NW 13.8 mph - N/A   Clear
6:53 PM 98.1 °F - 51.1 °F 20% 29.76 in 10.0 mi NW 19.6 mph 26.5 mph N/A   Clear
7:53 PM 95.0 °F - 51.1 °F 22% 29.77 in 10.0 mi NW 17.3 mph 25.3 mph N/A   Scattered Clouds
8:53 PM 93.9 °F 91.4 °F 53.1 °F 25% 29.79 in 10.0 mi NW 16.1 mph 21.9 mph N/A   Clear
9:53 PM 93.9 °F 91.4 °F 53.1 °F 25% 29.80 in 10.0 mi NW 12.7 mph - N/A   Clear
10:53 PM 91.9 °F 89.5 °F 54.0 °F 27% 29.80 in 10.0 mi NW 8.1 mph - N/A   Clear
11:53 PM 89.1 °F 87.3 °F 55.9 °F 32% 29.80 in 10.0 mi Calm Calm - N/A   Clear